TimeCST,TemperatureF,Dew PointF,Humidity,Sea Level PressureIn,VisibilityMPH,Wind Direction,Wind SpeedMPH,Gust SpeedMPH,PrecipitationIn,Events,Conditions,WindDirDegrees,DateUTC
12:15 AM,60.8,48.2,63,30.13,10.0,SW,10.4,-,N/A,,Clear,230,2014-01-17 06:15:00
12:35 AM,62.6,50.0,63,30.13,10.0,WSW,12.7,-,N/A,,Partly Cloudy,240,2014-01-17 06:35:00
12:55 AM,62.6,50.0,63,30.13,10.0,WSW,12.7,-,N/A,,Partly Cloudy,240,2014-01-17 06:55:00
1:15 AM,62.6,50.0,63,30.13,10.0,WSW,11.5,-,N/A,,Partly Cloudy,240,2014-01-17 07:15:00
1:35 AM,62.6,50.0,63,30.13,10.0,WSW,11.5,-,N/A,,Scattered Clouds,240,2014-01-17 07:35:00
1:55 AM,62.6,51.8,68,30.13,-9999.0,WSW,12.7,-,N/A,,Partly Cloudy,240,2014-01-17 07:55:00
2:15 AM,64.4,51.8,64,30.13,10.0,WSW,15.0,-,N/A,,Scattered Clouds,240,2014-01-17 08:15:00
2:35 AM,62.6,51.8,68,30.13,10.0,WSW,15.0,-,N/A,,Scattered Clouds,240,2014-01-17 08:35:00
2:55 AM,62.6,51.8,68,30.12,10.0,WSW,16.1,-,N/A,,Partly Cloudy,250,2014-01-17 08:55:00
3:15 AM,62.6,51.8,68,30.12,10.0,WSW,15.0,20.7,N/A,,Scattered Clouds,240,2014-01-17 09:15:00
3:35 AM,64.4,53.6,68,30.12,10.0,WSW,16.1,-,N/A,,Mostly Cloudy,240,2014-01-17 09:35:00
3:55 AM,62.6,53.6,72,30.12,10.0,WSW,15.0,-,N/A,,Mostly Cloudy,250,2014-01-17 09:55:00
4:15 AM,62.6,53.6,72,30.12,10.0,WSW,15.0,-,N/A,,Mostly Cloudy,250,2014-01-17 10:15:00
4:35 AM,62.6,53.6,72,30.12,10.0,WSW,12.7,-,N/A,,Overcast,250,2014-01-17 10:35:00
4:55 AM,64.4,55.4,73,30.12,10.0,WSW,15.0,-,N/A,,Overcast,250,2014-01-17 10:55:00
5:15 AM,62.6,55.4,77,30.12,10.0,WSW,13.8,-,N/A,,Overcast,250,2014-01-17 11:15:00
5:35 AM,60.8,53.6,77,30.12,10.0,WSW,15.0,21.9,N/A,,Overcast,250,2014-01-17 11:35:00
5:55 AM,60.8,55.4,82,30.12,10.0,Variable,6.9,17.3,N/A,,Mostly Cloudy,0,2014-01-17 11:55:00
6:15 AM,60.8,53.6,77,30.13,10.0,Calm,Calm,17.3,N/A,,Scattered Clouds,0,2014-01-17 12:15:00
6:35 AM,60.8,53.6,77,30.14,10.0,Calm,Calm,-,N/A,,Clear,0,2014-01-17 12:35:00
6:55 AM,60.8,53.6,77,30.15,10.0,Calm,Calm,-,N/A,,Clear,0,2014-01-17 12:55:00
7:15 AM,59.0,50.0,72,30.15,10.0,WNW,8.1,18.4,N/A,,Clear,300,2014-01-17 13:15:00
7:35 AM,59.0,48.2,67,30.17,10.0,NW,12.7,19.6,N/A,,Clear,310,2014-01-17 13:35:00
7:55 AM,57.2,48.2,72,30.18,10.0,NNW,18.4,-,N/A,,Clear,330,2014-01-17 13:55:00
8:15 AM,57.2,50.0,77,30.20,10.0,NW,15.0,21.9,N/A,,Clear,320,2014-01-17 14:15:00
8:35 AM,55.4,48.2,77,30.20,10.0,NNW,17.3,-,N/A,,Clear,330,2014-01-17 14:35:00
8:55 AM,55.4,46.4,72,30.21,10.0,NNW,16.1,-,N/A,,Clear,340,2014-01-17 14:55:00
9:15 AM,55.4,44.6,67,30.22,10.0,NNW,13.8,-,N/A,,Clear,340,2014-01-17 15:15:00
9:35 AM,55.4,46.4,72,30.23,10.0,NNW,10.4,-,N/A,,Clear,340,2014-01-17 15:35:00
9:55 AM,55.4,44.6,67,30.25,10.0,NNW,6.9,12.7,N/A,,Clear,330,2014-01-17 15:55:00
10:15 AM,55.4,42.8,63,30.23,10.0,NNW,10.4,-,N/A,,Clear,340,2014-01-17 16:15:00
10:35 AM,55.4,42.8,63,30.22,10.0,NNW,8.1,-,N/A,,Clear,330,2014-01-17 16:35:00
10:55 AM,55.4,41.0,58,30.23,10.0,WNW,4.6,-,N/A,,Clear,300,2014-01-17 16:55:00
11:15 AM,53.6,42.8,67,30.21,10.0,Calm,Calm,-,N/A,,Clear,0,2014-01-17 17:15:00
11:35 AM,55.4,39.2,54,30.21,10.0,NW,10.4,-,N/A,,Clear,320,2014-01-17 17:35:00
11:55 AM,55.4,30.2,38,30.20,10.0,NW,11.5,-,N/A,,Clear,320,2014-01-17 17:55:00
12:15 PM,57.2,37.4,48,30.19,10.0,NW,9.2,-,N/A,,Clear,320,2014-01-17 18:15:00
12:35 PM,55.4,42.8,63,30.17,10.0,Calm,Calm,-,N/A,,Clear,0,2014-01-17 18:35:00
12:55 PM,55.4,41.0,58,30.17,10.0,Calm,Calm,-,N/A,,Clear,0,2014-01-17 18:55:00
1:15 PM,55.4,41.0,58,30.16,10.0,Calm,Calm,-,N/A,,Clear,0,2014-01-17 19:15:00
1:35 PM,57.2,39.2,51,30.16,10.0,WNW,4.6,-,N/A,,Clear,290,2014-01-17 19:35:00
1:55 PM,57.2,35.6,44,30.16,10.0,Calm,Calm,-,N/A,,Clear,0,2014-01-17 19:55:00
2:15 PM,57.2,33.8,41,30.16,10.0,Calm,Calm,-,N/A,,Clear,0,2014-01-17 20:15:00
2:35 PM,57.2,35.6,44,30.16,10.0,Calm,Calm,-,N/A,,Clear,0,2014-01-17 20:35:00
2:55 PM,57.2,35.6,44,30.16,10.0,West,8.1,-,N/A,,Clear,270,2014-01-17 20:55:00
3:15 PM,57.2,35.6,44,30.16,10.0,Variable,4.6,-,N/A,,Clear,0,2014-01-17 21:15:00
3:35 PM,57.2,33.8,41,30.16,10.0,West,9.2,-,N/A,,Clear,270,2014-01-17 21:35:00
3:55 PM,57.2,35.6,44,30.16,10.0,West,8.1,-,N/A,,Clear,260,2014-01-17 21:55:00
4:15 PM,59.0,39.2,48,30.16,10.0,WSW,10.4,-,N/A,,Clear,250,2014-01-17 22:15:00
4:35 PM,68.0,46.4,46,30.16,10.0,WSW,10.4,-,N/A,,Clear,240,2014-01-17 22:35:00
4:55 PM,59.0,42.8,55,30.16,10.0,WSW,16.1,-,N/A,,Clear,250,2014-01-17 22:55:00
5:15 PM,57.2,44.6,63,30.16,10.0,WSW,16.1,-,N/A,,Clear,250,2014-01-17 23:15:00
5:35 PM,57.2,44.6,63,30.17,10.0,West,12.7,-,N/A,,Clear,260,2014-01-17 23:35:00
5:55 PM,57.2,44.6,63,30.17,10.0,West,10.4,18.4,N/A,,Clear,280,2014-01-17 23:55:00
6:15 PM,59.0,46.4,63,30.18,10.0,Calm,Calm,12.7,N/A,,Clear,0,2014-01-18 00:15:00
6:35 PM,59.0,42.8,55,30.19,10.0,Calm,Calm,-,N/A,,Partly Cloudy,0,2014-01-18 00:35:00
6:55 PM,57.2,39.2,51,30.20,10.0,NW,13.8,-,N/A,,Partly Cloudy,320,2014-01-18 00:55:00
7:15 PM,57.2,32.0,38,30.21,10.0,NW,10.4,17.3,N/A,,Partly Cloudy,310,2014-01-18 01:15:00
7:35 PM,57.2,32.0,38,30.21,10.0,WNW,8.1,18.4,N/A,,Scattered Clouds,300,2014-01-18 01:35:00
7:55 PM,57.2,32.0,38,30.22,10.0,NW,13.8,21.9,N/A,,Mostly Cloudy,320,2014-01-18 01:55:00
8:15 PM,55.4,33.8,44,30.22,10.0,NNW,21.9,-,N/A,,Overcast,330,2014-01-18 02:15:00
8:35 PM,55.4,30.2,38,30.23,10.0,NW,17.3,25.3,N/A,,Mostly Cloudy,320,2014-01-18 02:35:00
8:55 PM,53.6,28.4,38,30.23,10.0,NW,20.7,26.5,N/A,,Overcast,320,2014-01-18 02:55:00
9:15 PM,53.6,28.4,38,30.24,10.0,NNW,19.6,26.5,N/A,,Overcast,330,2014-01-18 03:15:00
9:35 PM,53.6,28.4,38,30.24,10.0,NW,17.3,33.4,N/A,,Mostly Cloudy,320,2014-01-18 03:35:00
9:55 PM,53.6,28.4,38,30.25,10.0,NW,16.1,23.0,N/A,,Partly Cloudy,320,2014-01-18 03:55:00
10:15 PM,53.6,26.6,35,30.25,10.0,NW,17.3,-,N/A,,Clear,320,2014-01-18 04:15:00
10:35 PM,53.6,28.4,38,30.24,10.0,NNW,20.7,-,N/A,,Clear,330,2014-01-18 04:35:00
10:55 PM,53.6,28.4,38,30.25,10.0,NNW,19.6,-,N/A,,Clear,330,2014-01-18 04:55:00
11:15 PM,53.6,28.4,38,30.25,10.0,NNW,19.6,-,N/A,,Clear,330,2014-01-18 05:15:00
11:35 PM,51.8,26.6,38,30.24,10.0,NNW,19.6,-,N/A,,Clear,330,2014-01-18 05:35:00
11:55 PM,51.8,26.6,38,30.24,10.0,NNW,24.2,-,N/A,,Clear,340,2014-01-18 05:55:00